Regional Weather Roundup
Issued by NWS

Home | Current Version | Previous Version | Graphics & Text | Print | Product List | Glossary On
Versions: 1 2 3 4 5 6 7 8 9 10 11 12 13 14 15 16 17 18 19 20 21 22 23 24 25 26 27 28 29 30 31 32 33 34 35 36 37 38 39 40 41 42 43 44 45 46 47 48 49 50
000
ASUS43 KLOT 272009
RWRIL

ILLINOIS REGIONAL WEATHER ROUNDUP
NATIONAL WEATHER SERVICE CHICAGO/ROMEOVILLE IL
300 PM CDT SAT MAY 27 2017

NOTE: "FAIR" INDICATES FEW OR NO CLOUDS BELOW 12,000 FEET WITH NO
SIGNIFICANT WEATHER AND/OR OBSTRUCTIONS TO VISIBILITY.

* THESE STATIONS ARE NOT UNDER NWS QUALITY CONTROL. THEY ALSO MAY NOT
  REPORT WEATHER SUCH AS PRECIPITATION OR FOG.

ILZ001-002-007-009-015-016-024-272100-
NORTHWEST ILLINOIS

CITY           SKY/WX    TMP DP  RH WIND       PRES   REMARKS
MOLINE         CLOUDY    77  61  57 MISG      29.84F
STERLING*      CLOUDY    75  63  66 NE5       29.86F
SAVANNA*       CLOUDY    71  55  57 CALM      29.87F
$$

ILZ003-004-008-010-011-017-018-272100-
NORTH CENTRAL ILLINOIS

CITY           SKY/WX    TMP DP  RH WIND       PRES   REMARKS
ROCKFORD       PTSUNNY   75  60  59 VRB3      29.88F
FREEPORT*      CLOUDY    72  61  68 NW5       29.91S
ROCHELLE*      SUNNY     73  61  65 CALM      29.88F
DE KALB*       SUNNY     74  62  65 CALM      29.88F
PERU*          CLOUDY    74  61  63 CALM      29.87F
$$

ILZ005-006-012>014-019>023-272100-
NORTHEAST ILLINOIS

CITY           SKY/WX    TMP DP  RH WIND       PRES   REMARKS
CHICAGO-OHARE  PTSUNNY   76  53  44 CALM      29.87F
CHICAGO-MIDWAY PTSUNNY   74  57  55 E5        29.88F
AURORA         CLOUDY    76  60  57 VRB3      29.87F
LANSING*       SUNNY     72  62  69 NE5       29.89F
JOLIET*        SUNNY     78  61  56 CALM      29.86F
WAUKEGAN       SUNNY     68  56  65 SE10      29.89F
DUPAGE AIRPORT CLOUDY    76  59  55 N3        29.87F
KANKAKEE*      MOSUNNY   80  61  51 CALM      29.87F HX  81
WHEELING       SUNNY     73  59  61 E9        29.89F
MORRIS*        MOSUNNY   77  60  56 CALM      29.85F
ROMEOVILLE*    SUNNY     75  62  62 NE3       29.87F
$$

LMZ740>746-272100-
SOUTHERN LAKE MICHIGAN

STATION/POSITION SKY/WX   TEMP    WIND        PRES    VSBY  WAVE
                          AIR SEA DIR/SP/G                  HT/PER
                          (F)     (DEG/KT/KT) (MB)    (MI)  (FT/S)
SOUTHERN BUOY              52 50  320/  4/  4 1013.6R         0
WILMETTE HARBOR            55 55                N/A           0
HARRISON CRIB              57      40/  9/  9   N/A
BURNHAM HARBOR             59      40/  4/  6   N/A
CALUMET HARBOR             58      50/  7/  7 1012.1F
BURNS HARBOR               55     340/  3/  4 1013.5F
MICHIGAN CITY              56     290/  5/  5   N/A
MICHIGAN CITY 6N           53 56  360/  6/  8   N/A           1
ST. JOSEPH                 56 60  350/  8/ 10 1013.3          1/ 2
$$

ILZ025>027-034>036-040-047-049-050-058-095>099-272100-
WEST-CENTRAL ILLINOIS

CITY           SKY/WX    TMP DP  RH WIND       PRES   REMARKS
QUINCY         CLOUDY    77  64  64 SE8       29.86F
GALESBURG*     CLOUDY    74  62  64 SE5       29.85F
MACOMB*        MOSUNNY   75  63  67 S3        29.89S
JACKSONVILLE*  SUNNY     77  64  63 CALM      29.87S
PITTSFIELD*    CLOUDY    78  66  66 NE8       29.88F
$$

ILZ028>032-037-038-041>044-048-051>054-059>061-272100-
CENTRAL ILLINOIS

CITY           SKY/WX    TMP DP  RH WIND       PRES   REMARKS
PONTIAC        MOSUNNY   76  66  70 CALM      29.87F
BLOOMINGTON    SUNNY     78  62  57 SE7       29.87F HX  80
DECATUR        SUNNY     75  65  70 NE8       29.87F
PEORIA         SUNNY     77  62  59 E5        29.86F
LACON*         MOSUNNY   75  64  69 NE6       29.85F
LINCOLN*       SUNNY     81  62  53 CALM      29.86F HX  82
SPRINGFIELD    SUNNY     81  62  52 NE6       29.85F HX  82
TAYLORVILLE    CLOUDY    77  63  62 E5        29.86F
$$

ILZ033-039-045-046-055>057-062-063-272100-
EAST-CENTRAL ILLINOIS

CITY           SKY/WX    TMP DP  RH WIND       PRES   REMARKS
CHAMPAIGN      PTSUNNY   72  63  73 VRB5      29.89F
RANTOUL*       PTSUNNY   73  64  73 E3        29.88F
MATTOON        SUNNY     77  65  66 NE5       29.86F
PARIS*         SUNNY     74  66  76 CALM      29.89F
$$

ILZ079-100>102-272100-
SOUTHWEST ILLINOIS

CITY           SKY/WX    TMP DP  RH WIND       PRES   REMARKS
ALTON          PTSUNNY   75  64  69 E8        29.86S
BELLEVILLE     LGT RAIN  75  70  83 S24G30    29.78F
CAHOKIA*       CLOUDY    79  67  66 N8        29.81F HX  81
SPARTA*        TSTM      70  56  59 NW28      29.91R
$$

ILZ064>066-069>071-074>076-080>082-084>086-088>090-092>094-272100-
SOUTH-CENTRAL ILLINOIS

CITY           SKY/WX    TMP DP  RH WIND       PRES   REMARKS
CARBONDALE     CLOUDY    79  72  79 CALM      29.85F HX  82
CAIRO*         SUNNY     85  71  64 SW7       29.82F HX  90
EFFINGHAM*     CLOUDY    79  66  63 CALM      29.87F HX  81
MARION         CLOUDY    81  72  74 S12       29.85F HX  84
MT. VERNON       N/A     82  69  64 SW5       29.86S HX  85
CENTRALIA*     CLOUDY    82  71  69 SW5       29.85S HX  85
SALEM*         CLOUDY    82  66  58 CALM      29.85F HX  83
METROPOLIS*    CLOUDY    85  71  62 SW10      29.85F HX  91
$$

ILZ067-068-072-073-078-083-087-091-272100-
SOUTHEAST ILLINOIS

CITY           SKY/WX    TMP DP  RH WIND       PRES   REMARKS
LAWRENCEVILLE  PTSUNNY   83  68  60 W6        29.85F HX  86
FLORA*         PTSUNNY   83  66  56 CALM      29.85F HX  86
FAIRFIELD*     PTSUNNY   82  68  62 CALM      29.84F HX  85
HARRISBURG*    CLOUDY    83  69  62 SW10      29.85S HX  87
ROBINSON*      SUNNY     79  66  63 N5        29.87F HX  81
CARMI*         PTSUNNY   83  72  69 SW6       29.84S HX  87
$$

ABBREVIATIONS USED IN REMARKS
   TC - TEMPERATURE IN CELSIUS
  WCI - WIND CHILL INDEX
   HX - HEAT INDEX
  VSB - VISIBILITY
$$





USA.gov is the U.S. government's official web portal to all federal, state and local government web resources and services.